Location: Mount Graham
(32.7016°N, 109.8912°W)
Time: 01:59:57
(UTC-07:00)

Cosmos 1340 - Visible Passes

Search period start: 30 April 2016 00:00
Search period end: 10 May 2016 00:00
Orbit: 508 x 514 km, 81.2° (Epoch: 29 April)

Date Brightness Start Highest point End Pass type
(mag) Time Alt. Az. Time Alt. Az. Time Alt. Az.
30 Apr 4.1 03:15:46 32° N 03:15:46 32° N 03:17:56 10° N visible
01 May 4.6 02:59:32 27° N 02:59:32 27° N 03:01:22 10° N visible
02 May 5.0 02:43:16 22° NNE 02:43:16 22° NNE 02:44:44 10° NNE visible
03 May 5.4 02:27:00 18° NNE 02:27:00 18° NNE 02:28:04 10° NNE visible
04 May 5.7 02:10:41 14° NNE 02:10:41 14° NNE 02:11:21 10° NNE visible
05 May 6.0 01:54:21 11° NE 01:54:21 11° NE 01:54:33 10° NNE visible
07 May 5.5 02:56:31 10° NNW 02:56:31 10° NNW 02:56:37 10° NNW visible
08 May 5.6 02:40:07 11° NNW 02:40:07 11° NNW 02:40:17 10° NNW visible
09 May 5.7 02:23:42 11° NNW 02:23:42 11° NNW 02:23:53 10° NNW visible
